HST,Max TemperatureF,Mean TemperatureF,Min TemperatureF,Max Dew PointF,MeanDew PointF,Min DewpointF,Max Humidity, Mean Humidity, Min Humidity, Max Sea Level PressureIn, Mean Sea Level PressureIn, Min Sea Level PressureIn, Max VisibilityMiles, Mean VisibilityMiles, Min VisibilityMiles, Max Wind SpeedMPH, Mean Wind SpeedMPH, Max Gust SpeedMPH,PrecipitationIn, CloudCover, Events, WindDirDegrees
2012-11-1,83,76,69,66,65,64,84,70,55,30.05,30.00,29.94,10,10,10,12,7,15,T,3,,28
2012-11-2,83,76,68,66,64,61,84,70,55,29.99,29.94,29.86,10,10,10,16,8,21,0.00,2,,233
2012-11-3,84,76,68,67,64,62,84,69,54,29.99,29.95,29.91,10,10,10,20,9,24,0.00,2,,226
2012-11-4,84,76,68,67,65,63,84,70,55,30.00,29.96,29.92,10,10,10,18,9,22,0.00,2,,234
2012-11-5,83,76,69,68,66,64,84,71,58,30.01,29.97,29.92,10,10,10,18,10,23,0.00,2,,9
2012-11-6,84,80,75,70,68,67,82,70,58,30.01,29.97,29.92,10,10,8,21,15,24,0.01,4,Rain,57
2012-11-7,84,79,74,68,67,64,79,69,58,30.07,30.01,29.96,10,10,9,17,13,21,T,4,Rain,62
2012-11-8,84,79,74,70,67,66,84,71,58,30.14,30.10,30.06,10,10,2,18,13,24,0.18,3,Rain,54
2012-11-9,83,79,74,69,67,65,79,69,58,30.14,30.10,30.04,10,10,7,21,17,26,0.08,3,Rain,53
2012-11-10,84,79,74,66,65,63,74,65,55,30.11,30.07,30.02,10,10,10,22,16,31,0.01,3,,57
2012-11-11,83,79,75,66,65,65,74,65,55,30.11,30.06,30.02,10,10,10,18,15,23,0.00,2,,58
2012-11-12,83,79,74,67,66,64,74,65,55,30.17,30.11,30.06,10,10,10,23,15,26,T,2,,50
2012-11-13,83,78,72,67,66,64,84,70,55,30.17,30.13,30.08,10,10,4,25,18,32,0.03,3,Rain,47
2012-11-14,83,78,73,68,66,64,84,70,55,30.18,30.14,30.10,10,10,7,26,17,38,0.08,4,Rain,52
2012-11-15,81,77,73,67,63,57,84,65,45,30.18,30.13,30.09,10,10,10,23,17,28,T,6,Rain,60
2012-11-16,82,77,71,66,63,61,73,64,54,30.15,30.11,30.07,10,10,10,25,18,31,0.03,5,Rain,59
2012-11-17,80,76,72,67,65,62,79,70,60,30.14,30.09,30.06,10,10,10,28,17,33,0.07,5,Rain,69
2012-11-18,83,79,75,67,65,64,74,66,58,30.15,30.09,30.05,10,10,10,21,15,24,0.00,4,,69
2012-11-19,82,79,75,67,66,64,74,66,58,30.13,30.09,30.04,10,10,10,17,13,21,T,4,,71
2012-11-20,81,78,75,67,65,63,74,68,62,30.09,30.04,29.98,10,10,10,18,14,23,T,4,Rain,80
2012-11-21,81,75,69,66,64,63,84,71,58,30.02,29.97,29.90,10,10,10,14,6,16,0.00,1,,228
2012-11-22,82,74,65,68,65,60,87,75,62,29.98,29.94,29.87,10,10,10,15,7,21,0.00,1,,233
2012-11-23,82,76,69,70,67,64,90,80,69,30.02,29.97,29.92,10,10,10,6,5,8,0.01,4,Rain-Thunderstorm,317
2012-11-24,83,76,68,68,66,64,90,76,62,30.03,29.99,29.94,10,10,10,18,11,23,0.00,1,,4
2012-11-25,80,75,69,67,65,62,84,71,58,30.06,30.01,29.96,10,10,10,25,15,31,T,3,,11
2012-11-26,80,76,72,63,60,57,69,57,45,30.12,30.05,30.01,10,10,10,24,19,29,T,5,Rain,39
2012-11-27,80,75,70,63,59,56,73,58,42,30.14,30.09,30.03,10,10,10,26,18,30,0.01,6,Rain,46
2012-11-28,80,74,68,65,61,59,84,68,52,30.10,30.04,29.98,10,10,5,22,8,26,0.07,5,Rain,48
2012-11-29,79,73,66,67,63,60,84,73,62,30.08,30.03,29.97,10,10,10,14,7,16,0.00,3,,238
2012-11-30,82,74,65,67,64,60,87,73,58,30.06,30.02,29.98,10,10,10,15,9,20,0.00,1,,240